• En España
  • Lista de países
  • Para 7 días
  • Temperatura del agua
  • Mapa Satelital
  • El tiempo en el mapa
  • Informadores
  • user-avatar
    Iniciar sesión

    Tiempo cada hora Kistutovo

    Hoy, 16 Agosto, Jueves

    Tiempo Temperatura Precipitaciones Viento Presión Humedad
    00:00 +16°C° 0 mm 2 mps 745 mmHg 98%
    01:00 +15°C° 0 mm 2 mps 745 mmHg 98%
    02:00 +15°C° 0 mm 2 mps 746 mmHg 98%
    03:00 +15°C° 0 mm 2 mps 746 mmHg 98%
    04:00 +14°C° 0 mm 2 mps 747 mmHg 98%
    05:00 +14°C° 0 mm 2 mps 747 mmHg 98%
    06:00 +14°C° 0 mm 2 mps 747 mmHg 94%
    07:00 +15°C° 0 mm 2 mps 748 mmHg 91%
    08:00 +16°C° 0 mm 2 mps 749 mmHg 87%
    09:00 +18°C° 0 mm 2 mps 749 mmHg 77%
    10:00 +19°C° 0 mm 2 mps 749 mmHg 68%
    11:00 +21°C° 0 mm 2 mps 750 mmHg 58%
    12:00 +21°C° 0 mm 2 mps 750 mmHg 55%
    13:00 +23°C° 0 mm 2 mps 750 mmHg 53%
    14:00 +24°C° 0 mm 2 mps 750 mmHg 51%
    15:00 +23°C° 0 mm 2 mps 750 mmHg 55%
    16:00 +23°C° 0 mm 2 mps 751 mmHg 58%
    17:00 +23°C° 0 mm 1 mps 751 mmHg 62%
    18:00 +21°C° 0 mm 1 mps 751 mmHg 68%
    19:00 +18°C° 0 mm 1 mps 751 mmHg 74%
    20:00 +15°C° 0 mm 1 mps 752 mmHg 79%
    21:00 +15°C° 0 mm 1 mps 752 mmHg 81%
    22:00 +14°C° 0 mm 1 mps 752 mmHg 83%
    23:00 +13°C° 0 mm 1 mps 753 mmHg 85%

    Mañana, 17 Agosto, Viernes

    Tiempo Temperatura Precipitaciones Viento Presión Humedad
    00:00 +13°C° 0 mm 1 mps 753 mmHg 86%
    01:00 +11°C° 0 mm 0 mps 753 mmHg 87%
    02:00 +11°C° 0 mm 0 mps 753 mmHg 88%
    03:00 +11°C° 0 mm 0 mps 754 mmHg 88%
    04:00 +11°C° 0 mm 0 mps 754 mmHg 88%
    05:00 +11°C° 0 mm 0 mps 754 mmHg 87%
    06:00 +13°C° 0 mm 0 mps 754 mmHg 79%
    07:00 +16°C° 0 mm 0 mps 755 mmHg 71%
    08:00 +18°C° 0 mm 0 mps 755 mmHg 63%
    09:00 +20°C° 0 mm 0 mps 755 mmHg 57%
    10:00 +23°C° 0 mm 1 mps 755 mmHg 52%
    11:00 +25°C° 0 mm 1 mps 755 mmHg 46%
    12:00 +25°C° 0 mm 1 mps 755 mmHg 45%
    13:00 +25°C° 0 mm 1 mps 754 mmHg 44%
    14:00 +26°C° 0 mm 1 mps 754 mmHg 43%
    15:00 +25°C° 0 mm 1 mps 754 mmHg 48%
    16:00 +24°C° 0 mm 1 mps 754 mmHg 52%
    17:00 +24°C° 0 mm 1 mps 754 mmHg 57%
    18:00 +22°C° 0 mm 1 mps 754 mmHg 62%
    19:00 +19°C° 0 mm 1 mps 754 mmHg 68%
    20:00 +16°C° 0 mm 1 mps 754 mmHg 74%
    21:00 +15°C° 0 mm 1 mps 754 mmHg 76%
    22:00 +15°C° 0 mm 1 mps 754 mmHg 78%
    23:00 +14°C° 0 mm 1 mps 754 mmHg 81%

    Pasado mañana, 18 Agosto, Sábado

    Tiempo Temperatura Precipitaciones Viento Presión Humedad
    00:00 +14°C° 0 mm 1 mps 754 mmHg 83%
    01:00 +13°C° 0 mm 1 mps 754 mmHg 85%
    02:00 +13°C° 0 mm 1 mps 754 mmHg 87%
    03:00 +12°C° 0 mm 1 mps 754 mmHg 87%
    04:00 +12°C° 0 mm 1 mps 754 mmHg 87%
    05:00 +12°C° 0 mm 1 mps 754 mmHg 88%
    06:00 +14°C° 0 mm 1 mps 754 mmHg 80%
    07:00 +18°C° 0 mm 1 mps 754 mmHg 72%
    08:00 +20°C° 0 mm 1 mps 754 mmHg 65%
    09:00 +20°C° 0 mm 2 mps 754 mmHg 59%
    10:00 +23°C° 0 mm 2 mps 754 mmHg 53%
    11:00 +24°C° 0 mm 2 mps 754 mmHg 48%
    12:00 +25°C° 0 mm 2 mps 754 mmHg 46%
    13:00 +25°C° 0 mm 2 mps 753 mmHg 45%
    14:00 +26°C° 0 mm 2 mps 753 mmHg 44%
    15:00 +25°C° 0 mm 2 mps 753 mmHg 49%
    16:00 +25°C° 0 mm 2 mps 752 mmHg 54%
    17:00 +24°C° 0 mm 1 mps 752 mmHg 58%
    18:00 +22°C° 0 mm 1 mps 752 mmHg 64%
    19:00 +20°C° 0 mm 1 mps 752 mmHg 70%
    20:00 +18°C° 0 mm 1 mps 752 mmHg 76%
    21:00 +16°C° 0 mm 1 mps 752 mmHg 78%
    22:00 +15°C° 0 mm 1 mps 752 mmHg 79%
    23:00 +15°C° 0 mm 1 mps 752 mmHg 81%

    19 Agosto, Domingo

    Tiempo Temperatura Precipitaciones Viento Presión Humedad
    00:00 +15°C° 0 mm 2 mps 752 mmHg 83%
    01:00 +14°C° 0 mm 2 mps 752 mmHg 85%
    02:00 +14°C° 0 mm 2 mps 752 mmHg 87%
    03:00 +14°C° 0 mm 2 mps 752 mmHg 89%
    04:00 +14°C° 0 mm 2 mps 752 mmHg 90%
    05:00 +14°C° 0 mm 2 mps 752 mmHg 92%
    06:00 +16°C° 0 mm 2 mps 751 mmHg 85%
    07:00 +18°C° 0 mm 2 mps 751 mmHg 78%
    08:00 +20°C° 0 mm 3 mps 751 mmHg 71%
    09:00 +21°C° 0 mm 3 mps 751 mmHg 64%
    10:00 +23°C° 0 mm 4 mps 750 mmHg 58%
    11:00 +25°C° 0 mm 4 mps 750 mmHg 52%
    12:00 +26°C° 0 mm 4 mps 749 mmHg 51%
    13:00 +26°C° 0 mm 4 mps 749 mmHg 51%
    14:00 +26°C° 0 mm 4 mps 748 mmHg 50%
    15:00 +26°C° 0,2 mm 4 mps 748 mmHg 57%
    16:00 +25°C° 0,2 mm 3 mps 748 mmHg 64%
    17:00 +24°C° 0,2 mm 3 mps 747 mmHg 70%
    18:00 +22°C° 0,4 mm 3 mps 747 mmHg 75%
    19:00 +20°C° 0,4 mm 3 mps 747 mmHg 80%
    20:00 +19°C° 0,4 mm 3 mps 746 mmHg 84%
    21:00 +19°C° 0,3 mm 3 mps 746 mmHg 88%
    22:00 +18°C° 0,3 mm 3 mps 746 mmHg 91%
    23:00 +18°C° 0,3 mm 3 mps 746 mmHg 94%

    20 Agosto, Lunes

    Tiempo Temperatura Precipitaciones Viento Presión Humedad
    00:00 +18°C° 0,1 mm 3 mps 746 mmHg 95%
    01:00 +17°C° 0,1 mm 2 mps 747 mmHg 97%
    02:00 +17°C° 0,1 mm 2 mps 747 mmHg 98%
    03:00 +17°C° 0 mm 2 mps 747 mmHg 98%
    04:00 +16°C° 0 mm 2 mps 747 mmHg 98%
    05:00 +16°C° 0 mm 2 mps 747 mmHg 98%
    06:00 +17°C° 0,1 mm 2 mps 747 mmHg 96%
    07:00 +17°C° 0,1 mm 2 mps 747 mmHg 94%
    08:00 +18°C° 0,1 mm 2 mps 748 mmHg 92%
    09:00 +18°C° 0,1 mm 2 mps 748 mmHg 87%
    10:00 +19°C° 0,1 mm 2 mps 748 mmHg 83%
    11:00 +20°C° 0,1 mm 2 mps 748 mmHg 78%
    12:00 +21°C° 0,1 mm 2 mps 748 mmHg 72%
    13:00 +23°C° 0,1 mm 2 mps 748 mmHg 65%
    14:00 +23°C° 0,1 mm 2 mps 748 mmHg 59%
    15:00 +23°C° 0 mm 2 mps 748 mmHg 61%
    16:00 +23°C° 0 mm 1 mps 748 mmHg 63%
    17:00 +23°C° 0 mm 1 mps 748 mmHg 66%
    18:00 +21°C° 0 mm 1 mps 748 mmHg 71%
    19:00 +19°C° 0 mm 1 mps 748 mmHg 76%
    20:00 +16°C° 0 mm 1 mps 748 mmHg 82%
    21:00 +15°C° 0 mm 1 mps 748 mmHg 83%
    22:00 +15°C° 0 mm 1 mps 748 mmHg 85%
    23:00 +14°C° 0 mm 1 mps 748 mmHg 87%

    21 Agosto, Martes

    Tiempo Temperatura Precipitaciones Viento Presión Humedad
    00:00 +14°C° 0 mm 1 mps 749 mmHg 88%
    01:00 +13°C° 0 mm 1 mps 749 mmHg 89%
    02:00 +13°C° 0 mm 1 mps 749 mmHg 91%
    03:00 +13°C° 0 mm 1 mps 749 mmHg 91%
    04:00 +12°C° 0 mm 0 mps 749 mmHg 90%
    05:00 +12°C° 0 mm 0 mps 749 mmHg 90%
    06:00 +14°C° 0 mm 0 mps 749 mmHg 83%
    07:00 +18°C° 0 mm 1 mps 749 mmHg 75%
    08:00 +20°C° 0 mm 1 mps 749 mmHg 68%
    09:00 +21°C° 0 mm 1 mps 749 mmHg 62%
    10:00 +22°C° 0 mm 1 mps 749 mmHg 56%
    11:00 +24°C° 0 mm 2 mps 749 mmHg 50%
    12:00 +24°C° 0 mm 2 mps 748 mmHg 48%
    13:00 +24°C° 0 mm 2 mps 748 mmHg 47%
    14:00 +25°C° 0 mm 2 mps 748 mmHg 45%
    15:00 +24°C° 0 mm 2 mps 747 mmHg 50%
    16:00 +24°C° 0 mm 2 mps 747 mmHg 55%
    17:00 +24°C° 0 mm 2 mps 747 mmHg 59%
    18:00 +21°C° 0 mm 2 mps 747 mmHg 64%
    19:00 +19°C° 0 mm 2 mps 746 mmHg 69%
    20:00 +18°C° 0 mm 2 mps 746 mmHg 74%
    21:00 +18°C° 0 mm 3 mps 746 mmHg 77%
    22:00 +18°C° 0 mm 3 mps 746 mmHg 80%
    23:00 +17°C° 0 mm 3 mps 746 mmHg 83%
    Mostrar más